Total_Precipitation_Accumulation
0.02 0.06 0.25 0.32 0.31 0.32 0.34 0.34 0.32 0.30 0.33 0.38 0.40 0.41 0.38 0.36 0.35 0.34 0.36 0.38 0.37 0.39 0.47 0.56 0.60 0.57 0.52 0.48 0.46 0.43 0.42 0.39 0.33 0.28 0.28 0.31 0.29 0.25 0.22 0.21 0.18 0.28 0.35
0.03 0.07 0.21 0.26 0.29 0.33 0.35 0.32 0.29 0.26 0.30 0.33 0.35 0.38 0.39 0.36 0.34 0.35 0.36 0.37 0.38 0.40 0.46 0.53 0.57 0.57 0.51 0.49 0.52 0.48 0.41 0.31 0.25 0.20 0.19 0.19 0.25 0.28 0.27 0.26 0.25 0.33 0.33
0.03 0.06 0.16 0.23 0.27 0.34 0.35 0.31 0.27 0.26 0.27 0.31 0.35 0.38 0.39 0.38 0.36 0.35 0.36 0.39 0.43 0.48 0.50 0.53 0.53 0.50 0.50 0.52 0.49 0.47 0.41 0.31 0.19 0.16 0.14 0.20 0.28 0.33 0.34 0.30 0.28 0.31 0.32
0.02 0.05 0.10 0.22 0.26 0.33 0.36 0.34 0.31 0.29 0.29 0.30 0.33 0.36 0.39 0.43 0.42 0.38 0.38 0.44 0.48 0.54 0.59 0.57 0.51 0.53 0.55 0.52 0.42 0.40 0.41 0.34 0.20 0.13 0.08 0.19 0.36 0.47 0.41 0.37 0.31 0.31 0.34
0.03 0.06 0.12 0.23 0.27 0.32 0.37 0.40 0.40 0.38 0.36 0.35 0.35 0.35 0.38 0.41 0.41 0.40 0.41 0.46 0.50 0.51 0.54 0.56 0.53 0.56 0.53 0.47 0.38 0.34 0.45 0.44 0.27 0.09 0.08 0.12 0.30 0.61 0.44 0.41 0.37 0.33 0.33
0.03 0.07 0.13 0.25 0.31 0.35 0.38 0.45 0.46 0.46 0.47 0.46 0.44 0.44 0.45 0.46 0.45 0.43 0.42 0.43 0.42 0.44 0.49 0.50 0.50 0.53 0.53 0.47 0.38 0.40 0.51 0.56 0.29 0.12 0.14 0.16 0.30 0.59 0.50 0.46 0.42 0.36 0.34
0.04 0.07 0.14 0.28 0.35 0.37 0.41 0.45 0.49 0.53 0.58 0.58 0.59 0.59 0.56 0.56 0.54 0.53 0.50 0.44 0.38 0.39 0.41 0.45 0.47 0.50 0.52 0.49 0.44 0.53 0.62 0.57 0.30 0.27 0.20 0.18 0.33 0.56 0.59 0.54 0.49 0.43 0.39
0.05 0.09 0.17 0.34 0.41 0.41 0.42 0.48 0.52 0.56 0.62 0.63 0.64 0.66 0.63 0.59 0.59 0.63 0.61 0.50 0.40 0.34 0.34 0.36 0.38 0.43 0.45 0.44 0.47 0.61 0.63 0.40 0.19 0.14 0.12 0.16 0.32 0.57 0.80 0.74 0.58 0.50 0.45
0.08 0.13 0.21 0.35 0.46 0.49 0.49 0.51 0.54 0.58 0.61 0.64 0.66 0.68 0.66 0.59 0.59 0.59 0.61 0.54 0.45 0.41 0.37 0.33 0.33 0.35 0.35 0.38 0.44 0.48 0.42 0.27 0.15 0.19 0.15 0.20 0.33 0.65 0.96 0.92 0.72 0.56 0.49
0.12 0.17 0.24 0.36 0.45 0.49 0.53 0.56 0.55 0.56 0.59 0.62 0.65 0.67 0.63 0.57 0.55 0.54 0.50 0.46 0.44 0.45 0.43 0.36 0.33 0.32 0.29 0.28 0.31 0.32 0.27 0.21 0.14 0.19 0.24 0.25 0.27 0.61 0.99 0.99 0.86 0.70 0.60
0.19 0.24 0.29 0.39 0.49 0.54 0.57 0.58 0.59 0.60 0.60 0.61 0.62 0.62 0.62 0.59 0.56 0.53 0.48 0.43 0.42 0.43 0.41 0.38 0.34 0.32 0.27 0.22 0.21 0.21 0.19 0.14 0.16 0.24 0.27 0.24 0.30 0.62 1.00 1.06 0.96 0.84 0.76
0.23 0.27 0.34 0.43 0.51 0.61 0.62 0.63 0.65 0.60 0.58 0.56 0.52 0.51 0.55 0.56 0.55 0.51 0.50 0.47 0.46 0.45 0.43 0.43 0.39 0.33 0.28 0.23 0.23 0.23 0.15 0.12 0.18 0.19 0.19 0.19 0.33 0.64 0.97 1.08 1.06 0.96 0.91
0.22 0.28 0.35 0.44 0.54 0.62 0.63 0.64 0.63 0.58 0.56 0.55 0.53 0.55 0.60 0.61 0.57 0.57 0.55 0.53 0.51 0.49 0.52 0.53 0.53 0.43 0.39 0.37 0.37 0.30 0.22 0.19 0.17 0.16 0.14 0.16 0.25 0.49 0.83 1.05 1.14 1.13 1.11
0.27 0.31 0.35 0.46 0.58 0.64 0.65 0.65 0.62 0.56 0.53 0.53 0.52 0.55 0.62 0.63 0.58 0.54 0.54 0.51 0.51 0.51 0.52 0.54 0.55 0.50 0.46 0.40 0.40 0.37 0.33 0.28 0.20 0.17 0.14 0.15 0.17 0.27 0.49 0.77 1.01 1.17 1.23
0.27 0.31 0.36 0.43 0.55 0.64 0.70 0.70 0.66 0.58 0.50 0.47 0.47 0.47 0.49 0.52 0.53 0.49 0.43 0.41 0.41 0.43 0.44 0.45 0.45 0.46 0.47 0.43 0.40 0.37 0.36 0.33 0.27 0.22 0.18 0.17 0.15 0.18 0.28 0.46 0.72 1.05 1.26
0.25 0.31 0.37 0.44 0.53 0.65 0.69 0.72 0.70 0.66 0.58 0.54 0.49 0.45 0.44 0.44 0.44 0.44 0.40 0.34 0.31 0.32 0.32 0.33 0.31 0.32 0.34 0.37 0.35 0.33 0.31 0.30 0.32 0.31 0.28 0.27 0.19 0.18 0.22 0.35 0.53 0.79 1.12
0.24 0.32 0.38 0.46 0.55 0.63 0.69 0.73 0.76 0.76 0.73 0.66 0.56 0.51 0.46 0.45 0.45 0.45 0.43 0.39 0.34 0.33 0.34 0.33 0.30 0.28 0.28 0.29 0.31 0.32 0.28 0.28 0.31 0.35 0.35 0.33 0.29 0.23 0.22 0.30 0.43 0.61 0.89
0.27 0.34 0.41 0.46 0.56 0.63 0.72 0.77 0.77 0.81 0.78 0.73 0.67 0.62 0.54 0.49 0.46 0.49 0.48 0.44 0.41 0.41 0.41 0.41 0.37 0.34 0.31 0.29 0.31 0.34 0.33 0.31 0.31 0.35 0.38 0.35 0.34 0.30 0.26 0.26 0.37 0.54 0.74
0.29 0.35 0.42 0.46 0.53 0.63 0.73 0.84 0.87 0.87 0.85 0.79 0.73 0.70 0.65 0.60 0.51 0.48 0.50 0.48 0.46 0.47 0.45 0.44 0.42 0.40 0.38 0.36 0.36 0.37 0.37 0.35 0.32 0.34 0.38 0.41 0.41 0.38 0.37 0.30 0.30 0.41 0.60
0.30 0.37 0.44 0.48 0.55 0.67 0.82 0.89 0.99 0.97 0.89 0.84 0.81 0.76 0.75 0.71 0.63 0.54 0.50 0.51 0.52 0.52 0.51 0.47 0.46 0.47 0.45 0.42 0.40 0.39 0.39 0.41 0.40 0.38 0.42 0.51 0.51 0.44 0.43 0.43 0.37 0.32 0.37
0.32 0.41 0.46 0.50 0.59 0.72 0.83 0.89 0.88 0.95 0.91 0.82 0.76 0.79 0.81 0.79 0.73 0.67 0.60 0.53 0.56 0.56 0.53 0.49 0.46 0.46 0.46 0.44 0.47 0.45 0.42 0.40 0.36 0.34 0.38 0.50 0.62 0.63 0.58 0.58 0.58 0.49 0.39
0.32 0.40 0.48 0.50 0.54 0.62 0.65 0.73 0.79 0.80 0.84 0.84 0.78 0.77 0.82 0.84 0.78 0.74 0.69 0.60 0.53 0.53 0.53 0.51 0.47 0.46 0.44 0.39 0.43 0.49 0.44 0.41 0.39 0.32 0.28 0.35 0.45 0.53 0.55 0.58 0.64 0.67 0.58
0.30 0.38 0.44 0.51 0.51 0.59 0.65 0.78 0.87 0.93 0.95 0.93 0.88 0.83 0.81 0.83 0.81 0.74 0.69 0.66 0.60 0.54 0.51 0.51 0.50 0.47 0.47 0.42 0.39 0.55 0.61 0.45 0.33 0.24 0.23 0.26 0.28 0.32 0.36 0.42 0.51 0.56 0.64
0.28 0.37 0.44 0.52 0.59 0.60 0.69 0.79 0.79 0.80 0.81 0.75 0.75 0.77 0.81 0.84 0.83 0.79 0.74 0.70 0.66 0.61 0.55 0.50 0.50 0.49 0.50 0.51 0.45 0.43 0.47 0.47 0.51 0.35 0.19 0.18 0.18 0.19 0.21 0.25 0.33 0.39 0.48
0.29 0.37 0.46 0.51 0.63 0.66 0.67 0.74 0.74 0.70 0.69 0.72 0.78 0.82 0.83 0.86 0.89 0.83 0.79 0.75 0.69 0.62 0.59 0.56 0.52 0.53 0.55 0.55 0.52 0.47 0.44 0.40 0.41 0.52 0.35 0.21 0.21 0.19 0.18 0.20 0.22 0.27 0.35
0.30 0.39 0.44 0.51 0.62 0.71 0.70 0.75 0.75 0.72 0.70 0.76 0.81 0.89 0.90 0.91 0.95 0.92 0.82 0.80 0.74 0.64 0.58 0.59 0.58 0.55 0.55 0.54 0.52 0.51 0.54 0.55 0.46 0.50 0.46 0.28 0.24 0.23 0.22 0.22 0.23 0.26 0.33